Time,TemperatureF,DewpointF,PressureIn,WindDirection,WindDirectionDegrees,WindSpeedMPH,WindSpeedGustMPH,Humidity,HourlyPrecipIn,Conditions,Clouds,dailyrainin,SoftwareType,DateUTC
2013-05-05 00:00:00,42.0,37.0,30.30,North,350,2.0,6.0,82,-99.99,,,-99.99,,2013-05-05 04:00:00,
2013-05-05 00:23:00,42.0,37.0,30.30,North,350,2.0,6.0,82,-99.99,,,-99.99,,2013-05-05 04:23:00,
2013-05-05 00:33:00,42.0,37.0,30.30,North,350,2.0,6.0,82,-99.99,,,-99.99,,2013-05-05 04:33:00,
2013-05-05 00:43:00,42.0,37.0,30.30,North,350,2.0,6.0,82,-99.99,,,-99.99,,2013-05-05 04:43:00,
2013-05-05 00:53:00,42.0,37.0,30.30,North,350,2.0,6.0,82,-99.99,,,-99.99,,2013-05-05 04:53:00,
2013-05-05 01:00:00,38.0,36.0,30.30,ENE,74,0.0,2.0,94,-99.99,,,-99.99,,2013-05-05 05:00:00,
2013-05-05 01:32:00,38.0,36.0,30.30,ENE,74,0.0,2.0,94,-99.99,,,-99.99,,2013-05-05 05:32:00,
2013-05-05 01:42:00,38.0,36.0,30.30,ENE,74,0.0,2.0,94,-99.99,,,-99.99,,2013-05-05 05:42:00,
2013-05-05 01:52:00,38.0,36.0,30.30,ENE,74,0.0,2.0,94,-99.99,,,-99.99,,2013-05-05 05:52:00,
2013-05-05 03:00:00,33.0,32.0,30.30,ESE,108,0.0,0.0,98,-99.99,,,-99.99,,2013-05-05 07:00:00,
2013-05-05 03:22:00,33.0,32.0,30.30,ESE,108,0.0,0.0,98,-99.99,,,-99.99,,2013-05-05 07:22:00,
2013-05-05 03:32:00,33.0,32.0,30.30,ESE,108,0.0,0.0,98,-99.99,,,-99.99,,2013-05-05 07:32:00,
2013-05-05 03:42:00,33.0,32.0,30.30,ESE,108,0.0,0.0,98,-99.99,,,-99.99,,2013-05-05 07:42:00,
2013-05-05 03:52:00,33.0,32.0,30.30,ESE,108,0.0,0.0,98,-99.99,,,-99.99,,2013-05-05 07:52:00,
2013-05-05 04:00:00,34.0,33.0,30.30,SSE,147,0.0,0.0,99,-99.99,,,-99.99,,2013-05-05 08:00:00,
2013-05-05 04:22:00,34.0,33.0,30.30,SSE,147,0.0,0.0,99,-99.99,,,-99.99,,2013-05-05 08:22:00,
2013-05-05 04:32:00,34.0,33.0,30.30,SSE,147,0.0,0.0,99,-99.99,,,-99.99,,2013-05-05 08:32:00,
2013-05-05 04:42:00,34.0,33.0,30.30,SSE,147,0.0,0.0,99,-99.99,,,-99.99,,2013-05-05 08:42:00,
2013-05-05 04:53:00,34.0,33.0,30.30,SSE,147,0.0,0.0,99,-99.99,,,-99.99,,2013-05-05 08:53:00,
2013-05-05 05:00:00,33.0,32.0,30.30,South,172,0.0,0.0,99,-99.99,,,-99.99,,2013-05-05 09:00:00,
2013-05-05 05:22:00,33.0,32.0,30.30,South,172,0.0,0.0,99,-99.99,,,-99.99,,2013-05-05 09:22:00,
2013-05-05 05:33:00,33.0,32.0,30.30,South,172,0.0,0.0,99,-99.99,,,-99.99,,2013-05-05 09:33:00,
2013-05-05 05:42:00,33.0,32.0,30.30,South,172,0.0,0.0,99,-99.99,,,-99.99,,2013-05-05 09:42:00,
2013-05-05 05:52:00,33.0,32.0,30.30,South,172,0.0,0.0,99,-99.99,,,-99.99,,2013-05-05 09:52:00,
2013-05-05 06:00:00,31.0,30.0,30.30,East,81,0.0,0.0,100,-99.99,,,-99.99,,2013-05-05 10:00:00,
2013-05-05 06:32:00,31.0,30.0,30.30,East,81,0.0,0.0,100,-99.99,,,-99.99,,2013-05-05 10:32:00,
2013-05-05 06:42:00,31.0,30.0,30.30,East,81,0.0,0.0,100,-99.99,,,-99.99,,2013-05-05 10:42:00,
2013-05-05 06:53:00,31.0,30.0,30.30,East,81,0.0,0.0,100,-99.99,,,-99.99,,2013-05-05 10:53:00,
2013-05-05 07:00:00,33.0,33.0,30.30,SE,146,0.0,0.0,100,-99.99,,,-99.99,,2013-05-05 11:00:00,
2013-05-05 07:22:00,33.0,33.0,30.30,SE,146,0.0,0.0,100,-99.99,,,-99.99,,2013-05-05 11:22:00,
2013-05-05 07:32:00,33.0,33.0,30.30,SE,146,0.0,0.0,100,-99.99,,,-99.99,,2013-05-05 11:32:00,
2013-05-05 07:42:00,33.0,33.0,30.30,SE,146,0.0,0.0,100,-99.99,,,-99.99,,2013-05-05 11:42:00,
2013-05-05 07:52:00,33.0,33.0,30.30,SE,146,0.0,0.0,100,-99.99,,,-99.99,,2013-05-05 11:52:00,
2013-05-05 08:00:00,43.0,38.0,30.30,ENE,66,1.0,5.0,82,-99.99,,,-99.99,,2013-05-05 12:00:00,
2013-05-05 08:22:00,43.0,38.0,30.30,ENE,66,1.0,5.0,82,-99.99,,,-99.99,,2013-05-05 12:22:00,
2013-05-05 08:32:00,43.0,38.0,30.30,ENE,66,1.0,5.0,82,-99.99,,,-99.99,,2013-05-05 12:32:00,
2013-05-05 08:42:00,43.0,38.0,30.30,ENE,66,1.0,5.0,82,-99.99,,,-99.99,,2013-05-05 12:42:00,
2013-05-05 08:52:00,43.0,38.0,30.30,ENE,66,1.0,5.0,82,-99.99,,,-99.99,,2013-05-05 12:52:00,
2013-05-05 09:00:00,49.0,39.0,30.30,North,351,0.0,8.0,68,-99.99,,,-99.99,,2013-05-05 13:00:00,
2013-05-05 09:21:00,49.0,39.0,30.30,North,351,0.0,8.0,68,-99.99,,,-99.99,,2013-05-05 13:21:00,
2013-05-05 09:32:00,49.0,39.0,30.30,North,351,0.0,8.0,68,-99.99,,,-99.99,,2013-05-05 13:32:00,
2013-05-05 09:42:00,49.0,39.0,30.30,North,351,0.0,8.0,68,-99.99,,,-99.99,,2013-05-05 13:42:00,
2013-05-05 09:52:00,49.0,39.0,30.30,North,351,0.0,8.0,68,-99.99,,,-99.99,,2013-05-05 13:52:00,
2013-05-05 10:00:00,53.0,38.0,30.27,North,10,8.0,10.0,58,-99.99,,,-99.99,,2013-05-05 14:00:00,
2013-05-05 10:32:00,53.0,38.0,30.27,North,10,8.0,10.0,58,-99.99,,,-99.99,,2013-05-05 14:32:00,
2013-05-05 10:42:00,53.0,38.0,30.27,North,10,8.0,10.0,58,-99.99,,,-99.99,,2013-05-05 14:42:00,
2013-05-05 10:52:00,53.0,38.0,30.27,North,10,8.0,10.0,58,-99.99,,,-99.99,,2013-05-05 14:52:00,
2013-05-05 11:00:00,58.0,34.0,30.27,SSW,202,2.0,11.0,40,-99.99,,,-99.99,,2013-05-05 15:00:00,
2013-05-05 11:33:00,58.0,34.0,30.27,SSW,202,2.0,11.0,40,-99.99,,,-99.99,,2013-05-05 15:33:00,
2013-05-05 11:43:00,58.0,34.0,30.27,SSW,202,2.0,11.0,40,-99.99,,,-99.99,,2013-05-05 15:43:00,
2013-05-05 11:53:00,58.0,34.0,30.27,SSW,202,2.0,11.0,40,-99.99,,,-99.99,,2013-05-05 15:53:00,
2013-05-05 12:00:00,59.0,35.0,30.24,NNE,30,4.0,12.0,39,-99.99,,,-99.99,,2013-05-05 16:00:00,
2013-05-05 12:32:00,59.0,35.0,30.24,NNE,30,4.0,12.0,39,-99.99,,,-99.99,,2013-05-05 16:32:00,
2013-05-05 12:42:00,59.0,35.0,30.24,NNE,30,4.0,12.0,39,-99.99,,,-99.99,,2013-05-05 16:42:00,
2013-05-05 12:53:00,59.0,35.0,30.24,NNE,30,4.0,12.0,39,-99.99,,,-99.99,,2013-05-05 16:53:00,
2013-05-05 13:00:00,62.0,37.0,30.24,ENE,65,6.0,15.0,39,-99.99,,,-99.99,,2013-05-05 17:00:00,
2013-05-05 13:23:00,62.0,37.0,30.24,ENE,65,6.0,15.0,39,-99.99,,,-99.99,,2013-05-05 17:23:00,
2013-05-05 13:32:00,62.0,37.0,30.24,ENE,65,6.0,15.0,39,-99.99,,,-99.99,,2013-05-05 17:32:00,
2013-05-05 13:42:00,62.0,37.0,30.24,ENE,65,6.0,15.0,39,-99.99,,,-99.99,,2013-05-05 17:42:00,
2013-05-05 13:52:00,62.0,37.0,30.24,ENE,65,6.0,15.0,39,-99.99,,,-99.99,,2013-05-05 17:52:00,
2013-05-05 14:00:00,65.0,34.0,30.21,NNW,347,4.0,13.0,32,-99.99,,,-99.99,,2013-05-05 18:00:00,
2013-05-05 14:22:00,65.0,34.0,30.21,NNW,347,4.0,13.0,32,-99.99,,,-99.99,,2013-05-05 18:22:00,
2013-05-05 14:32:00,65.0,34.0,30.21,NNW,347,4.0,13.0,32,-99.99,,,-99.99,,2013-05-05 18:32:00,
2013-05-05 14:42:00,65.0,34.0,30.21,NNW,347,4.0,13.0,32,-99.99,,,-99.99,,2013-05-05 18:42:00,
2013-05-05 14:52:00,65.0,34.0,30.21,NNW,347,4.0,13.0,32,-99.99,,,-99.99,,2013-05-05 18:52:00,
2013-05-05 15:00:00,65.0,32.0,30.18,SSE,147,5.0,15.0,28,-99.99,,,-99.99,,2013-05-05 19:00:00,
2013-05-05 15:22:00,65.0,32.0,30.18,SSE,147,5.0,15.0,28,-99.99,,,-99.99,,2013-05-05 19:22:00,
2013-05-05 15:32:00,65.0,32.0,30.18,SSE,147,5.0,15.0,28,-99.99,,,-99.99,,2013-05-05 19:32:00,
2013-05-05 15:42:00,65.0,32.0,30.18,SSE,147,5.0,15.0,28,-99.99,,,-99.99,,2013-05-05 19:42:00,
2013-05-05 15:52:00,65.0,32.0,30.18,SSE,147,5.0,15.0,28,-99.99,,,-99.99,,2013-05-05 19:52:00,
2013-05-05 16:00:00,68.0,38.0,30.18,NE,51,3.0,16.0,33,-99.99,,,-99.99,,2013-05-05 20:00:00,
2013-05-05 16:21:00,68.0,38.0,30.18,NE,51,3.0,16.0,33,-99.99,,,-99.99,,2013-05-05 20:21:00,
2013-05-05 16:32:00,68.0,38.0,30.18,NE,51,3.0,16.0,33,-99.99,,,-99.99,,2013-05-05 20:32:00,
2013-05-05 16:42:00,68.0,38.0,30.18,NE,51,3.0,16.0,33,-99.99,,,-99.99,,2013-05-05 20:42:00,
2013-05-05 16:52:00,68.0,38.0,30.18,NE,51,3.0,16.0,33,-99.99,,,-99.99,,2013-05-05 20:52:00,
2013-05-05 17:00:00,66.0,32.0,30.18,South,178,3.0,13.0,28,-99.99,,,-99.99,,2013-05-05 21:00:00,
2013-05-05 17:33:00,66.0,32.0,30.18,South,178,3.0,13.0,28,-99.99,,,-99.99,,2013-05-05 21:33:00,
2013-05-05 17:42:00,66.0,32.0,30.18,South,178,3.0,13.0,28,-99.99,,,-99.99,,2013-05-05 21:42:00,
2013-05-05 17:53:00,66.0,32.0,30.18,South,178,3.0,13.0,28,-99.99,,,-99.99,,2013-05-05 21:53:00,
2013-05-05 18:00:00,62.0,41.0,30.18,ESE,102,6.0,15.0,46,-99.99,,,-99.99,,2013-05-05 22:00:00,
2013-05-05 18:22:00,62.0,41.0,30.18,ESE,102,6.0,15.0,46,-99.99,,,-99.99,,2013-05-05 22:22:00,
2013-05-05 18:34:00,62.0,41.0,30.18,ESE,102,6.0,15.0,46,-99.99,,,-99.99,,2013-05-05 22:34:00,
2013-05-05 18:42:00,62.0,41.0,30.18,ESE,102,6.0,15.0,46,-99.99,,,-99.99,,2013-05-05 22:42:00,
2013-05-05 18:52:00,62.0,41.0,30.18,ESE,102,6.0,15.0,46,-99.99,,,-99.99,,2013-05-05 22:52:00,
2013-05-05 19:00:00,59.0,40.0,30.21,SSE,149,3.0,14.0,49,-99.99,,,-99.99,,2013-05-05 23:00:00,
2013-05-05 19:22:00,59.0,40.0,30.21,SSE,149,3.0,14.0,49,-99.99,,,-99.99,,2013-05-05 23:22:00,
2013-05-05 19:32:00,59.0,40.0,30.21,SSE,149,3.0,14.0,49,-99.99,,,-99.99,,2013-05-05 23:32:00,
2013-05-05 19:42:00,59.0,40.0,30.21,SSE,149,3.0,14.0,49,-99.99,,,-99.99,,2013-05-05 23:42:00,
2013-05-05 19:52:00,59.0,40.0,30.21,SSE,149,3.0,14.0,49,-99.99,,,-99.99,,2013-05-05 23:52:00,
2013-05-05 20:00:00,54.0,39.0,30.24,SE,130,2.0,12.0,59,-99.99,,,-99.99,,2013-05-06 00:00:00,
2013-05-05 20:22:00,54.0,39.0,30.24,SE,130,2.0,12.0,59,-99.99,,,-99.99,,2013-05-06 00:22:00,
2013-05-05 20:32:00,54.0,39.0,30.24,SE,130,2.0,12.0,59,-99.99,,,-99.99,,2013-05-06 00:32:00,
2013-05-05 20:42:00,54.0,39.0,30.24,SE,130,2.0,12.0,59,-99.99,,,-99.99,,2013-05-06 00:42:00,
2013-05-05 20:52:00,54.0,39.0,30.24,SE,130,2.0,12.0,59,-99.99,,,-99.99,,2013-05-06 00:52:00,
2013-05-05 21:00:00,48.0,40.0,30.24,ESE,111,2.0,8.0,74,-99.99,,,-99.99,,2013-05-06 01:00:00,
2013-05-05 21:21:00,48.0,40.0,30.24,ESE,111,2.0,8.0,74,-99.99,,,-99.99,,2013-05-06 01:21:00,
2013-05-05 21:32:00,48.0,40.0,30.24,ESE,111,2.0,8.0,74,-99.99,,,-99.99,,2013-05-06 01:32:00,
2013-05-05 21:42:00,48.0,40.0,30.24,ESE,111,2.0,8.0,74,-99.99,,,-99.99,,2013-05-06 01:42:00,
2013-05-05 21:52:00,48.0,40.0,30.24,ESE,111,2.0,8.0,74,-99.99,,,-99.99,,2013-05-06 01:52:00,
2013-05-05 22:00:00,47.0,40.0,30.27,WSW,243,0.0,7.0,78,-99.99,,,-99.99,,2013-05-06 02:00:00,
2013-05-05 22:32:00,47.0,40.0,30.27,WSW,243,0.0,7.0,78,-99.99,,,-99.99,,2013-05-06 02:32:00,
2013-05-05 22:42:00,47.0,40.0,30.27,WSW,243,0.0,7.0,78,-99.99,,,-99.99,,2013-05-06 02:42:00,
2013-05-05 22:52:00,47.0,40.0,30.27,WSW,243,0.0,7.0,78,-99.99,,,-99.99,,2013-05-06 02:52:00,
2013-05-05 23:00:00,41.0,38.0,30.27,WNW,282,0.0,4.0,89,-99.99,,,-99.99,,2013-05-06 03:00:00,
2013-05-05 23:22:00,41.0,38.0,30.27,WNW,282,0.0,4.0,89,-99.99,,,-99.99,,2013-05-06 03:22:00,
2013-05-05 23:33:00,41.0,38.0,30.27,WNW,282,0.0,4.0,89,-99.99,,,-99.99,,2013-05-06 03:33:00,
2013-05-05 23:42:00,41.0,38.0,30.27,WNW,282,0.0,4.0,89,-99.99,,,-99.99,,2013-05-06 03:42:00,
2013-05-05 23:53:00,41.0,38.0,30.27,WNW,282,0.0,4.0,89,-99.99,,,-99.99,,2013-05-06 03:53:00,